Weather in Yelovo

Russia / Udmurt Republic     58°20′41″N   51°57′47″E
temp.,
°C
wind,
m/s
gust,
m/s
humid.,
%
clouds,
%
prec.,
mm/h
press.,
hPa
HPBL,
m
23 april, fri
fri2301:00+5s51288100 0.0 1024401
04:00+4s499393 0.4 1024319
07:00+4s469179 0.0 1025261
10:00+6s458372 0.0 1026467
13:00+10s456642 0.0 10261057
16:00+12sse455926 0.1 10261253
19:00+10se477246 0.2 1025274
22:00+7se4108475 0.3 1025279
24 april, sat
sat2401:00+5ese3893100 0.0 1024152
04:00+4e4994100 0.0 1023235
07:00+4e51086100 0.0 1021381
10:00+8ese6877100 0.0 1019745
13:00+7e5783100 0.2 10171021
16:00+6e4792100 1.3 1016885
19:00+5e4895100 0.8 1014447
22:00+5ese41097100 1.4 1012499
25 april, sun
sun2501:00+5se5995100 0.8 1010910
04:00+5se61095100 2.1 1008941
07:00+5se71095100 0.8 1007877
10:00+5ese61194100 0.9 1005677
13:00+5se6993100 2.0 10031103
16:00+4sw3997100 4.8 1005595
19:00+5wsw41085100 2.1 1005716
22:00+3wsw613856 2.4 1007684
26 april, mon
mon2601:00+2sw613915 0.0 1008428
04:00+1wsw614888 0.0 1010581
07:00+2sw613855 0.0 1011593
10:00+6sw8126472 0.0 10111397
13:00+7sw8126596 0.7 10111706
16:00+8wsw9115673 1.3 10111834
19:00+6wsw6107024 0.1 1012765
22:00+2ssw39855 0.1 1012196
27 april, tue
tue2701:00+1ssw37865 0.0 1011118
04:000ssw34897 0.0 101158
07:00+3ssw23764 0.0 1009155
10:00+7ssw345888 0.0 1008880
13:00+9sw3449100 0.1 10071531
16:00+10s234897 0.1 10051402
19:00+8ese3461100 0.0 100398
22:00+6e3988100 1.3 1002375